San Diego Classic - Holiday Cup - Inventory

Station: INVENTORY - T Race

Distance: 10 Miles    

Release: 03-Aug-2017 16:00

Weather Release:    Arrival:

Wind at Release:     Wind at Arrival:

Temp at Release: °    Temp at Arrival: °

Lofts: 129

Birds: 700

Clocked: 599

Good Luck to Everyone!
Drops Pos Breeder Pigeon Name Color Sex Ent Arrival Speed To Win Eligible RaceAvg Speed
485 Arrowhead Loft - CA 0006-AU17-AH GRIZ H 5 18:51:27.00 102.654 02:05:52 Yes
486 Eduardo Torres - TX 14283-AU17-ARPU BC H 5 18:51:36.80 102.556 02:06:02 Yes
Los Banditos - CA 2448-AU17-LBAN SLT H 18:51:40.20 102.522 Yes
487 Milo Garver - CA 1101-AU17-SD BC H 2 18:51:42.50 102.499 02:06:08 Lost
488 P N A Loft - CA 1733-AU17-PNA BC H 9 18:51:46.00 102.465 02:06:11 Yes
489 Jedds Bird Suppies - CA 1311-AU17-JEDD BB H 2 18:51:46.30 102.462 02:06:12 Yes
490 Carlton Kroese-Crazy Al - CO 5034-AU17-CRAZ BC H 8 18:51:46.80 102.457 02:06:12 Yes
491 A P C Loft - TX 17199-AU17-APC BB H 9 18:51:53.20 102.393 02:06:19 Yes
492 J & M Partridge Loft - CA 0843-AU17-PASO DCWF H 5 18:51:53.80 102.387 02:06:19 Lost
493 A P C Loft - TX 17207-AU17-APC BB H 10 18:52:03.60 102.290 02:06:29 Lost
494 Flying Rainbows - WA 0156-AU17-FLYD BB H 2 18:52:18.90 102.139 02:06:44 Yes
495 Hawaiian Express - CA 0102-AU17-HAWE BB H 9 18:52:32.20 102.007 02:06:58 Yes
496 Desert Rose Lofts - NV 0265-AU17-DRL BB H 5 18:52:41.30 101.918 02:07:07 Lost
497 C & D Loft - CA 0401-AU17-PAL CHOC H 4 18:52:43.90 101.892 02:07:09 Yes
498 Dan And Greg Coury - AZ 4419-AU17-ARPU BBWF H 4 18:52:46.20 101.870 02:07:12 Lost
499 Flying D Loft - TX 0161-AU17-FLYD BB H 6 18:52:47.30 101.859 02:07:13 Yes
500 Alex Ruiz - CA 7510-AU17-RUIZ BB H 3 18:52:47.90 101.853 02:07:13 Yes
501 Genesis Syndicate Loft - AZ 0414-AU17-SYNL BC H 10 18:53:04.40 101.691 02:07:30 Yes
502 Les Fujitake - HI 13940-AU17-FOYS BC H 2 18:53:07.50 101.661 02:07:33 Yes
503 Pairan Racing Loft - OH 0322-AU17-LFO BB H 6 18:53:21.10 101.528 02:07:47 Lost
Naylor/Spring - BC 1005-AU17-MTIP BB H 18:53:31.60 101.425 Yes
504 A V A Lofts - CA 28301-AU17-JEDD DC H 4 18:53:34.60 101.396 02:08:00 Yes
505 Two-Be-Won - NV 17125-AU17-TBW BB H 6 18:53:36.60 101.377 02:08:02 Yes
506 Two-Be-Won - NV 17134-AU17-TBW BC H 7 18:53:45.00 101.295 02:08:10 Yes
507 Milestone Loft - CA 0126-AU17-SD BB H 11 18:54:05.40 101.097 02:08:31 Lost
508 Tony Chang - CA 0281-AU17-PAL BB H 5 18:54:08.20 101.070 02:08:34 Lost
509 Any Given Day-Quest - TX 17066-AU17-AGD BB H 3 18:54:08.80 101.064 02:08:34 Yes
510 A V A Lofts - CA 28302-AU17-JEDD BCWF H 5 18:54:13.80 101.016 02:08:39 Yes
511 Shiloft - PA 5033-AU17-ERIE BC H 5 18:54:16.80 100.987 02:08:42 Lost
512 Alex Ruiz - CA 7528-AU17-RUIZ RC H 4 18:54:17.30 100.982 02:08:43 Yes
513 Alex Ruiz - CA 7525-AU17-RUIZ BC H 5 18:54:17.40 100.981 02:08:43 Lost
514 Pairan Racing Loft - OH 0313-AU17-LFO SIL H 7 18:54:18.00 100.975 02:08:44 Lost
515 Hi-Cal Connection - CA 0858-AU17-HICA BC H 6 18:54:18.80 100.968 02:08:44 Lost
516 C P C A Syndicate - AZ 0858-AU17-PSC BBWF H 4 18:54:19.40 100.962 02:08:45 Yes
517 Modud - CO 17076-AU17-PUEB BB H 4 18:54:21.50 100.942 02:08:47 Yes
518 Mr. Dovely - OR 2713-AU17-FOYS BBWF H 1 18:54:22.00 100.937 02:08:47 Lost
519 Anthony Cuba - CA 3193-AU17-HP BB H 5 18:54:23.30 100.924 02:08:49 Yes
520 Utaz Team - UT 0898-AU17-PSC BB H 5 18:54:24.60 100.912 02:08:50 Yes
521 Two-Be-Won - NV 17141-AU17-TBW BB H 8 18:54:25.20 100.906 02:08:51 Yes
522 G & L Loft - OR 2329-AU17-WPC BC H 2 18:54:29.20 100.867 02:08:55 Yes
523 J & M Partridge Loft - CA 0564-AU17-PASO BB H 6 18:54:30.10 100.859 02:08:56 Yes
524 Utaz Team - UT 0848-AU17-PSC BCSP H 6 18:54:32.40 100.836 02:08:58 Yes
525 Genesis Syndicate Loft - AZ 0369-AU17-SYNL BB H 11 18:54:34.30 100.818 02:09:00 Yes
526 Four For More 2 - CA 1726-AU17-CVII GRIZ H 5 18:54:34.90 100.812 02:09:00 Yes
527 Genesis Syndicate Loft - AZ 0370-AU17-SYNL BC H 12 18:54:35.90 100.803 02:09:01 Yes
528 Transilvania Loft - NV 0546-AU17-OTC BC H 3 18:54:36.50 100.797 02:09:02 Yes
529 Los Banditos - CA 2467-AU17-LOSB BB H 4 18:54:37.50 100.787 02:09:03 Lost
530 Roberto Garcia And Franco - CA 17009-AU17-YIIK BB H 2 18:54:39.70 100.766 02:09:05 Yes
531 Kolvenbag & Son - PA 1160-IF17-KOLV BC H 7 18:54:41.00 100.754 02:09:06 Yes
532 Drama Queen Loft - TX 0387-AU17-GCI BB H 5 18:54:42.10 100.743 02:09:08 Lost
533 Jalisco - CA 1926-AU17-JALI DC H 6 18:54:42.60 100.738 02:09:08 Lost
534 Modud - CO 17193-AU17-PUEB SLT H 5 18:54:42.90 100.735 02:09:08 Yes
535 A V A Lofts - CA 28307-AU17-JEDD BB H 6 18:54:43.40 100.731 02:09:09 Yes
536 Aok Loft - NE 0979-AU17-OMA BB H 5 18:54:43.70 100.728 02:09:09 Yes
536 The Association - CA 1747-AU17-WBO Flight 747 DKSP C 9 18:54:43.70 100.728 02:09:09 Yes
538 Transilvania Loft - NV 12300-AU17-JEDD BBSP H 4 18:54:44.20 100.723 02:09:10 Lost
539 Father & Son - CA 25222-AU17-ARPU SIL H 1 18:54:44.50 100.720 02:09:10 Lost
540 Tony Chang - CA 0279-AU17-PAL BB H 6 18:54:44.60 100.719 02:09:10 Lost
541 A P C Loft - TX 17178-AU17-APC BB H 11 18:54:45.40 100.711 02:09:11 Lost
542 Paco Loft - CA 0747-AU17-PACO BC H 5 18:54:46.00 100.706 02:09:11 Lost
543 New Generation Loft - CA 1949-AU17-JALI BB H 5 18:54:49.50 100.672 02:09:15 Yes
544 C P C A Syndicate - AZ 0914-AU17-SLI BC H 5 18:54:55.80 100.612 02:09:21 Yes
545 Mcconnell Loft - FL 1843-AU17-GHC BB H 4 18:54:57.40 100.596 02:09:23 Yes
546 Los Banditos - CA 2455-AU17-LOSB BB H 5 18:55:00.70 100.565 02:09:26 Lost
547 Four For More 2 - CA 1735-AU17-CVII BB H 6 18:55:01.10 100.561 02:09:27 Lost
548 Rickyracers - CA 0113-AU17-LAND BC H 6 18:55:04.10 100.532 02:09:30 Yes
549 Nemeth & Nuz - CA 9054-AU17-BON BKSP H 2 18:55:04.70 100.526 02:09:30 Yes
550 Iv Aces Loft - CA 22005-AU17-JEDD BC H 5 18:55:05.70 100.517 02:09:31 Yes
551 Flying D Loft - TX 0164-AU17-FLYD BCPD H 7 18:55:06.50 100.509 02:09:32 Yes
552 Tenbrink Irma & Eddie - CA 0304-AU17-GENE BCSP H 4 18:55:07.20 100.503 02:09:33 Yes
553 P N A Loft - CA 1748-AU17-PNA BB H 10 18:55:07.90 100.496 02:09:33 Yes
554 Transilvania Loft - NV 0519-AU17-OTC BC H 5 18:55:08.40 100.491 02:09:34 Lost
555 Modud - CO 1301-AU17-SD BB H 6 18:55:14.00 100.438 02:09:39 Yes
556 Mesopotamia Loft - MN 0340-AU17-MESO BB H 6 18:55:16.90 100.410 02:09:42 Yes
557 Red Ass Ranch - TX 0138-AU17-RAR BB H 3 18:55:17.70 100.402 02:09:43 Yes
557 Mcconnell Loft - FL 1846-AU17-GHC BB H 5 18:55:17.70 100.402 02:09:43 Yes
559 Carlton Kroese-Crazy Al - CO 5038-AU17-CRAZ BC H 9 18:55:18.40 100.395 02:09:44 Yes
560 C P C A Syndicate - AZ 0918-AU17-PSC BB H 6 18:55:18.80 100.392 02:09:44 Yes
561 C L & Patty Gage - TX 2919-AU17-TEX DC H 6 18:55:19.30 100.387 02:09:45 Yes
562 Desert Rose Lofts - NV 0266-AU17-DRL BC H 6 18:55:20.00 100.380 02:09:46 Lost
Any Given Day-Quest - TX 16547-AU17-QUES BB H 18:55:24.50 100.337 Yes
563 We Be She's - NV 17185-AU17-TBW BB H 6 18:55:27.70 100.307 02:09:53 Yes
564 Win Maker Loft - CA 0153-AU17-PNOY BB H 5 18:55:28.00 100.304 02:09:53 Lost
565 Iv Aces Loft - CA 22009-AU17-JEDD BB H 6 18:55:28.90 100.295 02:09:54 Yes
566 Humberto Munoz - EM 65376-AU17-MEX BBWF H 6 18:55:31.40 100.272 02:09:57 Yes
567 Dan And Greg Coury - AZ 0560-AU17-DUTC DC H 5 18:55:31.80 100.268 02:09:57 Lost
568 Roberto Garcia And Franco - CA 17010-AU17-YIIK BB H 3 18:55:32.60 100.260 02:09:58 Yes
569 Hawaiian Express - CA 0022-AU17-TONG BBSP H 10 18:55:34.30 100.244 02:10:00 Lost
570 The Association - CA 1713-AU17-WBO Vic's Lucky Number BCPD C 10 18:55:38.00 100.209 02:10:03 Yes
Tony Chang - CA 0278-AU17-PAL BB H 18:55:40.20 100.188 Lost
571 Aok Loft - NE 0957-AU17-OMAH BC H 6 18:55:40.60 100.184 02:10:06 Lost
572 Mcconnell Loft - FL 1801-AU17-GHC BB H 6 18:55:42.40 100.167 02:10:08 Yes
573 Lamberton Loft - OK 0070-AU17-LAMB BB H 3 18:55:44.00 100.152 02:10:09 Yes
574 El Dorado Lofts Canada - BC 9327-CU17-CRPU DCWF H 5 18:55:45.00 100.142 02:10:11 Lost
575 Arrowhead Loft - CA 0007-AU17-AH BB H 6 18:55:53.00 100.066 02:10:19 Yes
576 Roberto Garcia And Franco - CA 17001-AU17-YIIK SIL H 4 18:55:56.80 100.030 02:10:22 Yes
577 Jenkins Racing - CA 0035-AU17-WEF Cube Noise BB H 6 18:55:57.50 100.024 02:10:23 Yes
578 Turk Brand Syndicate - IA 1029-AU17-ER BB H 5 19:06:35.40 94.324 02:21:01 Lost
579 Doves Landing - CA 1099-AU17-SD BB H 2 2017-08-09 12:42:00.00 2.600 112:03:3 Yes

There are 417 bird records

Note: These Race Results are unofficial and subject to change until verified by the Race Committee and declared final.